Powrót do katalogu

SECOR 8

EGRS 8

AktywnyNaukaPO
NORAD 2520·PAYLOAD·🇺🇸 United States

Wystrzelony Oct 5, 1966 z Vandenberg Space Force Base

Loading…

Następne Przeloty (najbliższe 24 godziny)

TLE

ŚwieżeSource: Space-Track

Epoka: Sep 14, 2026, 09:19 UTC

1 02520U 66089B   26257.38832791 -.00000006  00000-0 -39638-2 0  9990
2 02520  89.8569  30.9760 0014362 217.9966 141.9873  8.58893794389618

Śledź SECOR 8 w czasie rzeczywistym z AllMySat

Download on the App Store